Theta_e
314 314 315 314 313 311 301 290 289 294 297 292 285 287 289 294 290 292 291 290 289 288 286 284 285 287 289 291 289 285 286 281 280 283 285 287 286 284 285 283 279 278 278 280
314 314 314 313 313 307 293 288 288 294 294 286 284 286 288 290 289 288 289 288 288 288 285 283 286 288 292 290 288 285 286 281 280 283 284 287 284 284 282 282 281 278 279 283
313 313 314 313 311 305 294 289 286 288 286 284 286 285 285 285 289 288 288 287 288 286 284 285 284 287 291 291 291 294 288 280 281 282 283 283 282 283 283 283 279 280 281 285
313 313 314 313 310 309 295 288 286 285 284 284 283 284 284 283 284 287 287 285 286 284 282 283 283 287 288 290 295 288 286 281 280 280 281 281 281 281 282 281 283 281 285 282
312 313 313 312 309 305 291 288 286 284 283 283 283 286 284 284 285 285 284 284 286 284 282 283 282 285 286 285 288 287 284 281 281 279 281 281 280 283 282 282 283 281 283 283
312 313 312 312 308 302 292 290 289 289 284 282 283 284 285 287 286 286 287 286 285 284 285 286 287 286 285 286 286 284 283 281 278 277 278 279 278 280 283 282 283 284 280 286
312 312 312 312 309 301 295 292 289 290 284 284 285 286 287 286 285 285 287 287 285 288 289 288 287 287 286 286 285 285 281 281 280 277 278 275 285 286 285 284 285 286 286 287
312 312 311 311 310 304 295 292 290 289 285 284 285 286 286 285 285 285 286 287 287 289 286 282 281 281 283 282 283 284 284 282 279 276 274 279 283 283 283 282 284 287 286 288
312 312 311 310 310 305 296 294 292 290 289 288 288 286 286 284 282 283 286 288 288 288 284 282 276 278 280 280 280 283 283 282 280 275 272 273 283 285 287 286 280 287 287 287
313 312 311 310 310 308 297 295 294 290 288 289 287 286 286 285 283 282 284 286 286 286 282 281 279 279 282 279 278 278 278 279 277 277 274 278 284 287 288 279 285 286 287 287
312 312 311 310 310 308 298 295 296 294 289 290 291 290 286 286 285 284 284 285 284 282 280 279 279 279 281 280 280 279 278 276 275 277 274 274 286 285 283 288 286 287 288 288
312 312 311 310 309 308 300 292 297 296 293 293 293 294 294 291 291 287 285 285 284 285 281 280 279 280 278 280 278 281 278 282 279 280 279 287 287 288 290 288 288 288 288 289
312 314 312 310 309 307 301 294 294 293 291 291 291 291 293 296 294 292 287 285 287 285 286 283 281 280 281 279 278 280 281 284 282 281 284 286 288 290 289 288 288 289 290 289
309 310 313 311 308 307 302 294 294 292 289 287 290 295 292 295 294 293 292 290 289 288 287 283 280 280 284 280 282 281 283 283 282 281 285 287 288 288 289 288 289 289 289 287
307 308 309 311 310 307 297 294 294 294 291 285 287 291 291 292 292 292 292 290 288 286 284 281 281 283 283 280 280 277 283 285 282 285 289 287 288 288 288 287 288 289 287 285
307 308 308 309 311 305 296 291 295 297 294 288 282 288 288 290 291 290 289 289 287 286 284 283 283 285 284 275 276 282 286 289 290 288 289 287 287 287 289 288 289 287 286 286
307 307 308 308 310 301 295 291 295 300 294 287 281 280 287 288 288 287 287 287 286 286 284 282 282 283 285 276 280 286 289 291 288 289 288 286 286 288 287 288 287 289 287 286
307 307 307 307 308 305 298 298 304 299 293 289 281 281 282 286 283 283 285 284 284 284 284 283 282 283 281 278 284 287 289 288 287 287 287 289 287 286 286 286 285 285 284 284
306 306 306 303 301 295 295 304 304 301 294 278 285 280 275 285 281 282 283 283 280 283 281 282 283 282 278 283 283 286 289 287 288 288 287 285 284 285 284 284 284 283 283 283
304 298 293 290 297 304 302 297 294 294 294 292 285 284 280 282 278 282 278 282 276 280 283 284 283 281 285 288 289 289 290 290 289 286 285 284 282 283 283 283 284 284 284 284
293 289 288 295 304 297 294 288 288 288 285 289 288 287 285 286 283 282 284 278 280 279 279 281 281 278 282 286 286 288 288 287 286 287 288 287 286 285 283 283 284 284 284 284
294 293 296 297 292 289 286 284 288 285 282 286 287 287 288 287 289 286 286 282 281 277 281 280 277 280 284 285 286 287 288 287 286 287 286 286 286 286 285 284 284 284 284 284
295 291 288 287 285 280 279 276 281 282 286 285 285 283 284 284 286 286 285 281 280 280 278 276 278 282 284 285 288 290 292 290 288 288 287 286 286 285 285 284 284 284 284 285
287 282 280 281 279 280 279 278 280 284 284 283 285 281 281 284 284 285 281 284 281 276 275 275 280 282 285 286 288 290 290 289 289 288 286 286 285 285 285 285 285 284 284 285
286 285 279 281 283 279 279 281 281 283 284 284 282 285 285 283 282 283 282 279 272 274 274 277 282 284 285 286 288 288 289 289 287 286 284 284 284 284 284 284 284 284 285 284
288 286 283 282 281 279 278 281 281 284 284 283 283 283 281 281 281 279 278 277 274 277 279 283 284 284 286 287 287 288 289 288 286 285 285 284 284 283 284 284 284 284 284 284
284 283 287 282 281 280 280 281 282 285 284 280 282 279 278 279 277 277 277 276 282 284 284 284 284 285 286 288 287 288 288 288 285 284 284 284 285 284 283 282 283 284 285 284
Wind_Speed
21 21 19 15 8 3 7 3 3 4 2 6 2 3 1 2 1 5 2 3 2 3 3 2 2 3 1 1 2 2 0 3 3 2 2 1 0 2 3 3 4 1 1 11
21 21 21 17 9 3 5 4 1 3 3 3 1 2 1 2 2 2 2 2 2 1 3 1 2 2 2 1 2 4 4 0 2 1 1 2 3 3 4 5 3 7 3 8
21 21 21 18 8 4 6 4 3 5 6 1 6 4 2 2 2 2 3 3 2 2 2 3 4 3 1 1 2 5 3 2 4 6 1 1 4 4 5 4 4 5 12 19
22 23 23 21 12 3 6 4 1 1 1 2 4 3 3 3 2 2 1 2 1 3 3 1 2 2 1 2 4 2 3 3 2 5 6 3 6 9 9 12 6 9 16 9
22 22 24 23 17 3 7 4 5 3 2 1 3 1 4 5 2 3 1 2 2 2 3 5 7 6 5 5 1 3 2 1 2 5 2 2 7 14 14 17 15 14 22 25
21 21 23 24 22 5 4 0 1 5 3 1 3 3 5 5 6 1 2 2 4 2 3 2 1 2 3 4 7 4 3 4 2 6 4 6 7 14 13 8 7 9 11 12
19 20 21 23 21 11 5 1 3 4 1 2 2 2 2 2 2 4 2 3 3 2 4 4 3 5 5 4 4 3 5 4 2 4 5 4 3 2 4 10 7 16 11 13
17 19 20 21 19 16 6 2 3 3 2 1 1 4 4 3 3 3 3 3 0 3 4 3 3 3 1 3 5 0 2 4 0 2 3 10 6 2 6 7 5 11 17 17
14 15 16 18 18 9 5 2 0 4 6 3 3 4 3 4 3 2 2 2 1 5 3 3 3 4 3 2 1 5 4 4 2 2 3 7 4 1 3 3 7 4 9 6
11 13 15 16 16 13 4 2 2 4 4 3 4 3 5 5 3 3 1 3 2 3 2 2 3 4 1 3 4 4 3 2 8 6 5 12 12 4 2 2 6 2 5 4
8 10 12 14 16 15 4 0 3 3 3 4 4 5 5 3 2 5 5 4 1 3 3 3 3 3 3 1 4 6 8 8 6 4 4 12 7 4 7 6 2 4 3 3
6 6 7 10 14 16 4 3 2 2 3 3 1 3 1 2 6 7 2 2 4 5 4 2 2 3 1 4 5 1 4 9 7 14 13 3 8 6 4 2 3 4 4 5
12 7 5 5 8 11 7 1 3 3 3 4 3 1 3 2 3 2 6 2 3 3 3 4 2 4 5 5 8 5 5 4 5 1 8 20 13 15 9 7 8 5 5 4
9 10 11 2 2 5 6 2 2 3 2 2 4 2 3 4 3 1 3 6 4 5 3 3 3 3 5 4 2 4 4 5 6 9 13 12 15 14 14 9 6 5 4 5
7 8 9 12 3 5 4 2 1 1 3 3 4 2 3 4 2 5 4 6 5 3 2 2 4 2 2 1 1 4 6 10 6 15 4 7 8 4 3 7 8 9 7 4
3 5 6 8 2 5 3 4 2 1 2 3 3 3 4 6 4 4 5 3 2 3 4 4 3 2 3 2 5 6 11 13 15 19 6 6 7 5 4 6 6 6 7 5
3 2 3 5 1 2 2 4 3 5 2 3 4 5 2 2 4 3 3 3 1 3 2 2 1 2 4 2 13 8 18 24 11 15 8 13 8 8 8 5 5 7 4 3
3 3 5 4 6 2 1 2 6 4 4 3 1 5 4 3 2 1 2 1 2 1 1 0 2 1 2 8 13 16 17 9 10 13 11 17 3 4 5 4 6 6 5 3
4 5 5 3 0 1 2 2 5 1 2 3 2 3 4 2 1 1 2 2 1 1 1 3 3 4 9 9 6 11 20 10 17 10 7 7 10 8 6 6 7 6 5 5
3 3 4 0 1 2 3 1 1 1 1 1 4 2 2 3 1 1 2 1 2 2 3 3 4 6 8 14 14 14 18 16 13 12 10 5 5 6 8 11 6 6 5 4
3 2 1 2 2 2 2 1 2 2 3 3 2 4 2 3 2 3 3 2 2 3 3 3 3 5 5 5 6 7 8 9 11 10 13 8 7 6 7 7 8 6 6 5
4 3 0 1 1 1 1 2 3 4 4 3 3 3 3 1 1 2 1 2 1 6 2 2 4 6 7 7 8 6 5 5 8 8 9 7 7 5 6 6 7 6 5 5
2 3 2 1 1 3 5 6 4 4 4 4 3 2 3 1 1 1 2 4 4 3 3 5 6 5 7 8 6 9 6 7 5 5 3 4 6 4 5 6 5 6 6 5
2 3 4 5 5 5 6 5 4 4 3 4 6 2 2 2 3 2 4 4 3 4 5 7 4 8 9 6 6 5 6 5 8 7 4 6 6 5 4 6 6 7 6 5
3 3 6 6 4 1 2 2 0 1 3 5 3 2 2 2 3 3 3 4 5 5 6 5 6 9 6 7 6 7 6 6 6 6 4 6 6 6 5 5 6 7 5 5
4 7 4 2 2 3 2 2 3 3 3 3 3 3 3 5 4 5 8 4 7 8 6 8 5 7 7 8 7 7 7 6 6 6 6 5 8 9 7 5 6 7 6 6
6 4 7 5 3 4 4 5 4 4 5 3 2 6 13 1 4 6 6 9 14 10 9 7 7 8 10 10 7 9 9 7 6 6 6 8 7 6 5 8 8 7 6 5
Wind_Direction
18 20 18 13 9 351 60 92 64 318 3 57 32 125 96 339 37 29 45 82 85 155 156 120 155 201 106 28 139 118 294 132 242 201 146 336 351 195 153 146 196 92 94 265
14 13 15 13 9 116 122 99 171 334 70 135 99 244 92 86 108 49 72 98 47 59 131 151 107 132 346 53 112 167 173 12 333 278 78 25 219 189 104 94 92 200 178 261
14 13 13 15 29 55 84 93 59 343 53 36 125 139 150 112 22 90 79 126 108 115 115 34 171 155 219 6 88 97 89 156 213 205 179 105 232 193 181 151 170 177 226 268
15 13 12 16 19 99 92 29 204 210 144 9 106 94 138 122 161 40 44 45 201 152 136 87 173 122 93 347 168 69 121 218 214 255 242 247 250 238 189 206 195 220 270 247
20 15 13 14 18 77 79 121 130 28 85 24 106 8 201 160 183 138 227 178 159 158 173 195 200 153 203 196 147 140 349 209 61 287 111 164 261 266 228 226 234 257 263 278
24 21 17 14 15 62 92 265 29 106 325 54 96 215 174 202 133 348 55 149 123 185 226 181 106 125 92 166 156 155 131 131 87 262 350 295 263 234 207 183 202 214 223 242
24 24 24 22 19 45 106 147 106 86 180 128 184 159 101 134 174 144 130 113 149 157 96 110 85 62 71 99 65 93 135 127 144 277 332 265 303 251 183 206 218 218 262 268
24 25 25 27 30 31 79 105 99 107 114 151 104 123 110 100 47 64 98 37 32 132 60 52 15 344 109 42 31 129 81 127 228 290 237 303 277 183 170 182 275 234 232 256
22 22 22 23 25 49 84 71 348 96 119 244 142 137 163 157 136 55 76 40 30 65 76 71 138 236 235 238 165 42 80 67 148 140 237 248 252 128 160 151 288 222 198 239
23 18 20 20 20 28 86 66 29 84 95 254 136 166 164 129 109 118 123 162 84 31 94 128 174 255 185 237 196 168 133 185 219 216 262 278 249 175 144 97 267 188 187 184
9 16 14 15 16 18 67 230 360 98 126 266 186 162 134 109 133 151 176 76 344 62 113 141 213 196 224 256 186 183 171 161 202 166 201 278 142 83 191 223 195 179 195 218
350 4 15 16 15 13 37 42 353 3 121 224 327 278 317 192 180 137 177 170 151 173 103 203 120 210 193 188 255 50 236 203 184 188 210 242 204 230 230 208 204 208 217 227
18 350 351 25 24 25 48 67 331 37 44 332 33 3 8 64 215 153 121 272 167 182 172 153 160 217 137 196 228 197 253 165 238 79 211 246 239 253 246 201 220 205 210 204
24 4 355 169 89 50 55 43 333 66 92 105 287 8 31 348 359 121 96 138 89 95 102 144 169 187 172 226 268 208 202 141 235 260 278 275 257 246 255 247 206 200 185 196
32 19 356 355 194 89 72 61 353 126 120 212 278 309 11 348 334 101 146 137 115 129 128 154 223 207 147 166 40 231 194 221 209 265 260 238 262 245 214 198 207 201 190 202
46 30 15 357 170 120 46 5 336 171 98 80 341 310 347 352 64 113 70 96 101 119 165 213 252 284 152 225 249 255 228 253 249 265 275 241 266 241 204 199 205 190 186 196
351 37 7 347 250 121 139 193 231 146 73 72 336 338 307 328 44 36 42 42 119 146 216 220 199 243 164 228 261 253 260 267 257 249 268 278 226 250 202 199 189 176 166 185
26 42 20 352 127 120 282 220 152 126 88 55 95 272 346 15 37 43 349 67 17 248 218 127 201 72 112 255 249 259 269 288 270 253 226 251 300 158 187 164 149 172 193 206
34 46 80 99 106 191 286 336 116 36 126 142 210 202 245 7 40 11 23 45 300 8 232 247 135 192 224 246 301 287 282 285 297 295 256 250 240 242 193 177 184 192 208 207
81 56 59 138 77 270 108 22 101 143 265 185 237 134 260 100 4 190 76 59 235 261 237 135 226 260 298 271 256 271 297 301 300 290 287 234 247 220 202 207 193 196 192 187
42 85 203 236 96 116 152 178 175 152 233 222 222 193 222 186 133 208 161 203 204 269 278 218 250 267 253 310 294 280 307 332 308 274 279 262 220 207 192 194 197 188 189 191
182 162 70 321 68 41 189 205 184 202 232 200 189 191 193 184 225 118 169 245 173 251 162 234 250 249 262 288 289 280 292 60 344 322 299 278 236 215 188 176 178 184 181 181
60 55 17 90 290 183 212 190 205 210 198 180 144 152 148 43 32 150 188 227 231 109 221 231 233 245 263 261 266 291 341 19 356 332 302 293 271 210 172 171 163 162 174 194
114 148 233 203 194 227 203 182 186 229 135 138 150 113 151 158 165 206 235 215 156 231 234 237 242 234 249 266 258 297 311 307 294 290 241 226 223 217 172 161 158 165 182 201
183 194 237 211 197 346 285 241 350 239 139 124 102 92 154 155 232 210 240 233 241 214 232 229 231 234 243 266 284 293 294 275 284 292 253 194 189 189 193 180 175 181 185 195
208 216 213 108 117 233 259 211 240 164 122 82 84 149 197 218 211 207 214 231 224 236 214 235 235 241 246 255 268 277 261 259 260 268 254 194 186 193 195 175 192 195 192 201
221 225 203 158 154 189 183 175 207 146 130 198 173 197 213 117 215 216 201 212 239 249 252 248 236 236 250 255 272 284 273 271 238 239 229 218 185 166 172 196 205 199 200 203